Regional Weather Roundup
Issued by NWS

Home | Current Version | Previous Version | Graphics & Text | Print | Product List | Glossary Off
Versions: 1 2 3 4 5 6 7 8 9 10 11 12 13 14 15 16 17 18 19 20 21 22 23 24 25 26 27 28 29 30 31 32 33 34 35 36 37 38 39 40 41 42 43 44 45 46 47 48 49 50

000
ASUS43 KMKX 281200
RWRWI

WISCONSIN REGIONAL WEATHER ROUNDUP
NATIONAL WEATHER SERVICE MILWAUKEE/SULLIVAN WI
600 AM CST FRI NOV 28 2014

NOTE: "FAIR" INDICATES FEW OR NO CLOUDS BELOW 12,000 FEET WITH NO
SIGNIFICANT WEATHER AND/OR OBSTRUCTIONS TO VISIBILITY.

WIZ001-002-006>008-014>016-023>028-281300-
NORTHWEST WISCONSIN

CITY           SKY/WX    TMP DP  RH WIND       PRES   REMARKS
SUPERIOR ARPT  FLURRIES   9   4  80 E3        30.15F
ASHLAND        LGT SNOW   8   3  80 CALM      30.16F
6HR MIN TEMP:   5; 6HR MAX TEMP:   8; 6HR PCP: TRACE;

HAYWARD        CLOUDY     8   2  76 VRB3      30.09F
6HR MIN TEMP:   4; 6HR MAX TEMP:   8; 6HR PCP: TRACE;

SIREN          CLOUDY    10   6  83 E6        30.08F WCI   0
CUMBERLAND     FLURRIES   9   5  85 E6        30.06F WCI  -1
RICE LAKE      FLURRIES   9   5  83 E7        30.10F WCI  -2
CHETEK         FLURRIES   9   5  84 E8        30.10F WCI  -4
LADYSMITH      FLURRIES   9   5  84 E8        30.13F WCI  -3
EAU CLAIRE     NOT AVBL
MENOMONIE      CLOUDY    11   7  83 E12       30.09F WCI  -3
NEW RICHMOND   CLOUDY    12   7  81 SE7       30.05F WCI   1
OSCEOLA        CLOUDY    12   7  82 SE8       30.09S WCI   0
$$

WIZ003>005-009-010-017-018-281300-
NORTH CENTRAL WISCONSIN

CITY           SKY/WX    TMP DP  RH WIND       PRES   REMARKS
MANITOWISH WTR CLOUDY     4   1  86 S3        30.11F
ARBOR VITAE    CLOUDY     6   2  85 S3        30.12S
WOODRUFF       CLOUDY     6   2  85 S3        30.12S
RHINELANDER    FLURRIES   4   0  83 S3        30.13F
6HR MIN TEMP:  -7; 6HR MAX TEMP:   4; 6HR PCP: TRACE;

EAGLE RIVER    CLOUDY     5   0  78 CALM      30.12S
LAND O LAKES   CLOUDY     4   1  86 CALM      30.12F
PHILLIPS       FLURRIES   6   1  79 SE7       30.11F WCI  -6
TOMAHAWK       FLURRIES   5   1  82 CALM      30.15F
MEDFORD        LGT SNOW   7   2  83 SE6       30.11F WCI  -4
MERRILL        LGT SNOW   6   3  86 CALM      30.17S
$$

WIZ029-030-035-036-043>047-281300-
CENTRAL WISCONSIN

CITY           SKY/WX    TMP DP  RH WIND       PRES   REMARKS
WAUSAU         LGT SNOW   7   3  84 SE7       30.16F FOG     WCI  -5
6HR MIN TEMP:   2; 6HR MAX TEMP:   7; 6HR PCP: TRACE;

MOSINEE        LGT SNOW   7   5  92 SE6       30.17F WCI  -3
MARSHFIELD     LGT SNOW   9   4  80 SE8       30.13F WCI  -3
6HR MIN TEMP:   4; 6HR MAX TEMP:   9; 6HR PCP: TRACE;

STEVENS POINT  LGT SNOW   6   3  88 SE3       30.20F
WAUPACA        CLOUDY    10   5  79 CALM      30.25F
WAUTOMA        NOT AVBL
WISC RAPIDS    CLOUDY    10   4  76 SE6       30.19F WCI   0
6HR MIN TEMP:   3; 6HR MAX TEMP:  10; 6HR PCP: TRACE;

CAMP DOUGLAS   MOCLDY    12  10  92 SE8       30.17F WCI   1
$$

WIZ011>013-019>022-031-037>040-048>050-281300-
NORTHEAST WISCONSIN

CITY           SKY/WX    TMP DP  RH WIND       PRES   REMARKS
ANTIGO         CLOUDY     6   3  88 S6        30.16S WCI  -5
SHAWANO        CLOUDY    10   5  81 CALM      30.25S
OCONTO         MOCLDY     8   6  92 CALM      30.27F
STURGEON BAY   CLOUDY    12   7  79 CALM      30.25S
6HR MIN TEMP:   3; 6HR MAX TEMP:  12;

GREEN BAY      CLOUDY    11   7  84 S3        30.26F
6HR MIN TEMP:   2; 6HR MAX TEMP:  11;

MANITOWOC      NOT AVBL
APPLETON       CLOUDY    10   3  72 S6        30.23F WCI   1
CLINTONVILLE   MOCLDY     9   3  78 SW3       30.24F
OSHKOSH        CLOUDY    12   6  77 MISG      30.24F
6HR MIN TEMP:   4; 6HR MAX TEMP:  12;

$$

WIZ032>034-041-042-053>061-281300-
SOUTHWEST WISCONSIN

CITY           SKY/WX    TMP DP  RH WIND       PRES   REMARKS
LA CROSSE      CLOUDY    16   9  74 SE10      30.14F WCI   4
6HR MIN TEMP:  14; 6HR MAX TEMP:  16; 6HR PCP:  0.04;

SPARTA         CLOUDY    13   8  80 SE5       30.17F WCI   5
VIROQUA        CLOUDY    12   9  88 SE12      30.11F WCI  -2
BOSCOBEL       CLOUDY    17   8  67 CALM      30.19F
6HR MIN TEMP:  13; 6HR MAX TEMP:  17; 6HR PCP: TRACE;

PRAIRIE DU CHI CLOUDY    16   9  71 SE12      30.17F WCI   3
PLATTEVILLE    MOCLDY    15   9  76 SE12      30.18F WCI   2
$$

WIZ056-057-062-063-064-067-068-281300-
SOUTH CENTRAL WISCONSIN

CITY           SKY/WX    TMP DP  RH WIND       PRES   REMARKS
REEDSBURG      LGT SNOW  12   9  87 SE3       30.19F
BARABOO/DELLS  LGT SNOW  13   9  85 SE7       30.19F WCI   3
LONE ROCK      FLURRIES  18  10  71 SE8       30.21F WCI   8
MINERAL POINT  FLURRIES  18  10  73 SE12      30.16F WCI   5
MADISON        LGT SNOW  15  11  83 SE12      30.22F FOG     WCI   2
6HR MIN TEMP:  12; 6HR MAX TEMP:  16; 6HR PCP:  0.01;

MIDDLETON      CLOUDY    17  12  80 SE7       30.22F WCI   7
WATERTOWN      CLOUDY    13  10  87 SE3       30.26S
MONROE         FLURRIES  16  12  86 SE12      30.21F WCI   3
JANESVILLE     NOT AVBL
$$

WIZ051-052-058>065-066-070>072-281300-
SOUTHEAST WISCONSIN

CITY           SKY/WX    TMP DP  RH WIND       PRES   REMARKS
MILWAUKEE      CLOUDY    16   9  74 S7        30.27F WCI   6
6HR MIN TEMP:  14; 6HR MAX TEMP:  16;

WAUKESHA       NOT AVBL
MILWAUKEE/TIMM CLOUDY    18   9  68 S6        30.28F WCI   9
RACINE         CLOUDY    18   9  68 S5        30.30F WCI  11
6HR MIN TEMP:  13; 6HR MAX TEMP:  18;

BURLINGTON     MOCLDY    15  11  86 S7        30.26F WCI   5
KENOSHA        CLOUDY    18  12  77 S8        30.27F WCI   8
6HR MIN TEMP:  11; 6HR MAX TEMP:  18;

FOND DU LAC    CLOUDY    13   7  77 S7        30.24F WCI   3
6HR MIN TEMP:   4; 6HR MAX TEMP:  13;

SHEBOYGAN      CLOUDY    12   4  70 S5        30.25F WCI   4
6HR MIN TEMP:   4; 6HR MAX TEMP:  12;

WEST BEND      CLOUDY    12   9  85 CALM      30.25F
JUNEAU         LGT SNOW  12   9  85 SE5       30.26F WCI   4
$$

LSZ147-162-281300-
LAKE SUPERIOR

STATION/POSITION TIME  TEMP    WIND        PRES    WAVE
                       AIR SEA DIR/SP/G            HT/PER
                 (UTC) (F)     (DEG/KT/KT) (MB)    (FT/S)
DEVILS ISLAND    1100   12     200/ 11/ 14 1023.5F
PORT WING        1140    9     130/  1/  3 1021.0F
SAXON HARBOR     1120   10     180/  1/ 25 1022.0F
$$

LMZ867-665-643>646-281300-
LAKE MICHIGAN

STATION/POSITION TIME  TEMP    WIND        PRES    WAVE
                       AIR SEA DIR/SP/G            HT/PER
                 (UTC) (F)     (DEG/KT/KT) (MB)    (FT/S)
CHAMBERS ISLAND  1100   15     180/  1/  5 1024.7F
N MID LAKE BUOY  1050   19 42  260/ 10/ 12 1026.2F   1/ 3
NORTHPORT PIER   1115   13      CALM  /  4 1025.1F
SISTER BAY       1028             CALM       N/A
ALGOMA LAKESHORE 1043             CALM       N/A
KEWAUNEE LAKESHO 1100   10     270/  4/  6 1024.4F
SHEBOYGAN LAKESH 1100   13 34  230/  6/  8 1027.4F
PORT WASHINGTON  1100   15     250/  3/  4 1026.8F
MILWAUKEE LAKESH 1100   17     200/  6/  8   N/A
S MID LAKE BUOY  1050   24 42  230/  8/ 10 1028.2F   2/ 6
KENOSHA   LAKESH 1100   18     200/  5/  7 1026.1F
$$

TC  - TEMPERATURE IN CELSIUS
VSB - VISIBILITY IN STATUTE MILES
WCI - WIND CHILL INDEX
HX  - HEAT INDEX



USA.gov is the U.S. government's official web portal to all federal, state and local government web resources and services.